Weather History for Punta Gorda, FL

Change the Weather History Date:

Thursday, January 17, 2013

  Actual Average Record
Temperature  
Mean Temperature 69 °F -  
Max Temperature 79 °F 71 °F 82 °F (1999)
Min Temperature 59 °F 47 °F 37 °F (2009)
Cooling Degree Days 4    
Growing Degree Days 19 (Base 50)    
Moisture  
Dew Point 59 °F    
Average Humidity 87    
Maximum Humidity 100    
Minimum Humidity 60    
Precipitation  
Precipitation 0.01 in - - ()
Sea Level Pressure  
Sea Level Pressure 30.08 in    
Wind  
Wind Speed 4 mph (WNW)    
Max Wind Speed 24 mph    
Max Gust Speed 33 mph    
Visibility 6 miles    
Events Fog    
Averages and records for this station are not official NWS values.
T = Trace of Precipitation, MM = Missing Value Source: NWS Daily Summary

Daily Weather History Graph

Daily Weather History Graph

Search for Another Location

Airport:

Trip Planner

Search our weather history database for the weather conditions in past years. The results will help you decide how hot, cold, wet, or windy it might be!

Date:

Astronomy

Jan. 17, 2013 Rise Set
Actual Time 7:18 AM EST 5:58 PM EST
Civil Twilight 6:53 AM EST 6:23 PM EST
Nautical Twilight 6:24 AM EST 6:51 PM EST
Astronomical Twilight 5:56 AM EST 7:19 PM EST
Moon 11:04 AM EST (1/17) No Moon Set
Length of Visible Light 11h 30m
Length of Day
10h 40m
Waxing Crescent, 37% of the Moon is Illuminated
Jan 17
Waxing Crescent
Jan 18
First Quarter
Jan 26
Full
Feb 3
Last Quarter
Feb 10
New

Hourly Weather History & Observations

Time (EST) Temp. Dew Point Humidity Pressure Visibility Wind Dir Wind Speed Gust Speed Precip Events Conditions
12:53 AM 64.0 °F 63.0 °F 96% 30.07 in 10.0 mi Calm Calm - N/A   Clear
1:13 AM 62.6 °F 62.6 °F 100% 30.06 in 1.5 mi Calm Calm - N/A   Clear
1:17 AM 62.6 °F 62.6 °F 100% 30.06 in 0.8 mi Calm Calm - N/A   Mist
1:31 AM 60.8 °F 60.8 °F 100% 30.06 in 0.8 mi ENE 3.5 mph - N/A   Mist
1:43 AM 60.8 °F 60.8 °F 100% 30.06 in 1.2 mi Calm Calm - N/A   Partly Cloudy
1:53 AM 61.0 °F 60.1 °F 97% 30.06 in 1.8 mi Calm Calm - N/A   Clear
1:55 AM 60.8 °F 60.8 °F 100% 30.06 in 3.0 mi Calm Calm - N/A   Clear
2:02 AM 60.8 °F 60.8 °F 100% 30.06 in 2.0 mi Calm Calm - N/A   Clear
2:12 AM 60.8 °F 60.8 °F 100% 30.06 in 10.0 mi Calm Calm - N/A   Clear
2:18 AM 62.6 °F 60.8 °F 94% 30.06 in 1.2 mi Calm Calm - N/A   Partly Cloudy
2:20 AM 62.6 °F 60.8 °F 94% 30.06 in 0.8 mi Calm Calm - N/A   Mist
2:53 AM 62.1 °F 60.1 °F 93% 30.06 in 0.8 mi Calm Calm - N/A   Clear
3:01 AM 62.6 °F 62.6 °F 100% 30.06 in 1.0 mi Calm Calm - N/A   Clear
3:08 AM 62.6 °F 62.6 °F 100% 30.06 in 0.5 mi Calm Calm - N/A Fog Fog
3:17 AM 60.8 °F 60.8 °F 100% 30.06 in 0.5 mi Calm Calm - N/A Fog Fog
3:24 AM 60.8 °F 60.8 °F 100% 30.06 in 0.5 mi Calm Calm - N/A Fog Fog
3:32 AM 60.8 °F 59.0 °F 94% 30.06 in 0.8 mi Calm Calm - N/A   Mist
3:46 AM 60.8 °F 59.0 °F 94% 30.06 in 0.5 mi Calm Calm - N/A Fog Fog
3:53 AM 61.0 °F 61.0 °F 100% 30.06 in 0.8 mi Calm Calm - N/A   Mist
4:17 AM 60.8 °F 60.8 °F 100% 30.05 in 1.2 mi Calm Calm - N/A   Partly Cloudy
4:28 AM 60.8 °F 60.8 °F 100% 30.05 in 2.5 mi Calm Calm - N/A   Partly Cloudy
4:35 AM 59.0 °F 59.0 °F 100% 30.05 in 9.0 mi Calm Calm - N/A   Clear
4:53 AM 59.0 °F 57.9 °F 96% 30.05 in 9.0 mi Calm Calm - N/A   Clear
5:27 AM 59.0 °F 57.2 °F 94% 30.05 in 1.8 mi ESE 4.6 mph - N/A   Clear
5:32 AM 59.0 °F 59.0 °F 100% 30.05 in 3.0 mi SE 3.5 mph - N/A   Clear
5:53 AM 60.1 °F 57.9 °F 93% 30.06 in 10.0 mi Calm Calm - N/A   Clear
6:53 AM 61.0 °F 60.1 °F 97% 30.07 in 7.0 mi SE 3.5 mph - N/A   Clear
7:27 AM 60.8 °F 60.8 °F 100% 30.07 in 2.0 mi SE 3.5 mph - 0.01 in   Clear
7:36 AM 60.8 °F 60.8 °F 100% 30.07 in 6.0 mi Calm Calm - 0.01 in   Clear
7:53 AM 63.0 °F 62.1 °F 97% 30.08 in 7.0 mi SE 3.5 mph - 0.01 in   Clear
8:53 AM 69.1 °F 66.9 °F 93% 30.09 in 10.0 mi SSE 5.8 mph - N/A   Clear
9:53 AM 75.9 °F 69.1 °F 79% 30.10 in 10.0 mi SW 10.4 mph - N/A   Partly Cloudy
10:53 AM 79.0 °F 66.9 °F 66% 30.09 in 10.0 mi SW 13.8 mph - N/A   Scattered Clouds
11:53 AM 79.0 °F 66.9 °F 66% 30.08 in 10.0 mi WSW 16.1 mph 20.7 mph N/A   Mostly Cloudy
12:53 PM 79.0 °F 66.9 °F 66% 30.05 in 10.0 mi SW 18.4 mph 26.5 mph N/A   Partly Cloudy
1:20 PM 77.0 °F 66.2 °F 69% 30.03 in 10.0 mi WNW 15.0 mph - N/A   Mostly Cloudy
1:53 PM 75.9 °F 64.9 °F 69% 30.03 in 10.0 mi WNW 19.6 mph 24.2 mph N/A   Overcast
2:53 PM 69.1 °F 62.1 °F 78% 30.05 in 10.0 mi NW 19.6 mph 24.2 mph N/A   Overcast
3:53 PM 64.0 °F 57.0 °F 78% 30.09 in 10.0 mi NW 20.7 mph 31.1 mph N/A   Overcast
4:07 PM 62.6 °F 57.2 °F 82% 30.09 in 10.0 mi NNW 24.2 mph 33.4 mph N/A   Overcast
4:14 PM 62.6 °F 57.2 °F 82% 30.09 in 9.0 mi NW 20.7 mph 33.4 mph N/A   Overcast
4:53 PM 63.0 °F 54.0 °F 72% 30.11 in 10.0 mi NNW 18.4 mph 27.6 mph N/A   Overcast
5:21 PM 64.4 °F 53.6 °F 68% 30.11 in 10.0 mi NW 17.3 mph 28.8 mph N/A   Overcast
5:53 PM 64.0 °F 52.0 °F 65% 30.12 in 10.0 mi NW 15.0 mph 20.7 mph N/A   Overcast
6:53 PM 63.0 °F 51.1 °F 65% 30.14 in 10.0 mi NW 12.7 mph 19.6 mph N/A   Overcast
7:53 PM 62.1 °F 48.0 °F 60% 30.15 in 10.0 mi NW 16.1 mph 21.9 mph N/A   Overcast
8:53 PM 62.1 °F 48.0 °F 60% 30.16 in 10.0 mi NW 11.5 mph - N/A   Overcast
9:53 PM 61.0 °F 48.9 °F 64% 30.17 in 10.0 mi NW 16.1 mph 20.7 mph N/A   Overcast
10:53 PM 60.1 °F 48.9 °F 67% 30.17 in 10.0 mi NW 9.2 mph - N/A   Overcast
11:53 PM 60.1 °F 48.0 °F 64% 30.16 in 10.0 mi NW 18.4 mph 23.0 mph N/A   Overcast